Theta_e
304 303 303 302 302 301 301 302 302 302 302 302 303 303 303 303 303 304 303 303 303 304 303 303 303 302 300 300 299 298 298 298 298 298 298 297 297 296 296 296 296 296
304 304 304 303 303 302 301 301 301 301 302 302 302 302 302 303 303 303 303 303 303 303 303 303 303 302 301 300 299 298 298 298 298 298 298 298 297 297 296 296 296 295
305 305 305 305 304 303 302 301 300 300 301 301 301 301 302 302 302 302 302 302 302 302 302 302 302 302 302 301 300 299 298 298 298 299 299 298 298 297 297 296 296 295
304 304 304 304 304 303 303 302 302 301 300 300 301 301 300 300 301 301 301 301 302 302 302 302 302 302 302 302 301 301 300 299 299 299 299 299 298 298 297 297 296 295
303 302 302 303 304 303 303 303 303 303 301 301 300 300 300 300 299 299 300 300 300 301 301 301 302 302 302 302 301 301 301 301 300 300 300 299 299 298 298 297 296 295
303 302 302 303 303 303 302 302 303 303 303 302 302 301 300 300 299 299 299 299 299 300 300 300 301 301 301 301 301 301 301 301 301 301 301 300 300 299 299 298 297 296
301 302 302 302 302 302 302 302 302 302 303 303 303 303 302 300 299 299 299 299 299 298 299 299 299 300 300 300 300 301 301 301 301 301 301 301 301 300 300 299 298 297
299 300 301 301 302 302 302 302 302 301 301 302 302 303 303 302 301 300 299 298 298 298 298 298 298 298 299 299 299 300 300 300 300 300 300 300 300 300 300 300 299 298
296 296 298 299 300 301 301 302 302 301 301 300 300 300 301 301 302 301 300 299 298 297 297 297 297 297 297 298 298 299 299 299 300 300 300 300 300 300 300 300 300 299
295 295 295 296 297 298 299 300 301 301 301 300 300 299 299 299 300 301 301 300 299 298 297 297 297 297 297 297 298 298 298 298 299 299 300 300 300 300 300 300 300 300
295 295 296 296 295 295 296 297 298 299 300 300 300 300 299 298 298 299 299 300 299 299 297 297 297 296 296 296 297 297 297 297 298 298 299 299 299 300 300 300 300 300
294 295 295 295 295 295 295 295 295 296 297 298 299 299 299 299 298 297 297 298 298 298 297 297 296 296 296 295 295 296 296 296 296 297 297 298 298 299 299 299 299 300
292 292 292 292 292 293 294 294 294 294 294 295 296 297 298 299 299 298 297 297 297 297 297 297 296 295 295 295 294 294 295 295 296 296 296 296 297 297 298 298 299 299
289 290 290 290 290 290 291 292 293 293 293 294 294 294 295 297 297 298 297 297 296 295 296 296 296 295 294 294 294 294 294 294 294 295 295 295 296 296 296 297 297 298
288 288 288 289 289 289 289 290 290 291 292 292 293 293 293 294 295 297 297 297 296 295 295 295 295 295 294 293 293 293 293 293 293 294 294 294 295 295 296 296 297 297
288 288 288 287 288 288 288 288 288 289 289 290 291 291 292 292 293 294 295 296 297 297 296 294 294 294 294 293 292 292 292 292 292 293 293 293 293 294 294 295 296 296
287 287 287 287 287 287 287 287 287 287 288 288 288 289 290 291 292 292 293 294 295 296 296 296 295 294 293 292 292 291 291 291 292 292 292 292 292 293 293 294 294 295
287 287 287 287 287 287 287 287 286 286 287 287 287 287 288 288 289 290 291 292 293 294 295 296 296 295 293 292 292 291 291 291 291 291 291 291 292 292 292 292 293 293
287 287 287 287 287 287 287 286 286 286 286 286 286 286 287 287 287 288 288 289 290 291 292 293 294 295 294 293 292 291 291 290 290 290 290 291 291 291 292 292 292 292
286 286 286 286 286 286 286 286 286 286 286 286 286 286 286 286 286 286 287 287 288 288 289 291 292 293 293 294 293 292 291 290 290 290 290 290 290 291 291 291 291 292
286 286 286 286 286 286 286 286 286 286 286 286 286 286 286 286 286 285 286 286 286 286 287 288 290 290 291 292 293 293 291 290 290 290 290 290 290 290 290 290 291 291
286 286 286 286 286 286 286 286 286 286 286 286 286 286 286 286 286 285 285 285 285 285 285 286 287 288 289 290 291 292 292 290 290 290 290 290 289 289 290 290 290 290
285 285 285 286 286 286 286 286 285 286 286 286 285 285 286 286 286 286 286 286 285 285 285 285 286 286 286 287 289 290 291 291 290 290 289 290 290 289 289 289 289 290
284 284 284 284 285 285 285 285 285 285 285 285 285 285 285 286 286 286 286 286 286 286 286 285 285 285 285 286 286 288 289 290 291 290 289 289 290 289 289 288 289 289
282 282 283 283 283 284 284 284 284 285 285 285 284 284 284 285 285 285 286 286 286 286 286 286 286 286 285 285 285 286 287 288 290 290 289 289 289 289 289 288 288 289
281 281 281 281 282 282 282 283 283 284 284 284 284 284 284 284 284 284 285 285 286 286 286 286 286 286 286 285 285 285 285 286 288 290 290 290 289 288 288 288 288 288
Wind_Speed
13 14 16 18 21 22 23 25 26 28 29 30 31 32 32 32 32 32 33 33 34 36 38 42 46 50 53 54 55 55 55 54 53 52 51 51 51 51 51 51 50 49
14 13 14 16 18 21 22 23 23 24 26 28 29 30 31 31 31 31 32 32 33 33 34 37 40 44 48 51 54 55 55 56 55 54 53 52 52 52 52 51 50 50
18 16 15 14 15 17 20 22 22 21 22 25 27 28 30 31 31 32 32 32 32 32 32 34 36 38 42 46 50 53 55 56 56 55 54 54 53 53 52 52 51 51
20 18 16 15 14 14 16 20 22 20 20 21 23 26 29 30 31 32 33 33 32 32 32 33 34 36 38 41 45 49 52 54 55 55 55 55 54 54 53 53 53 53
20 19 17 16 16 14 14 15 18 20 21 21 20 23 26 28 30 32 33 33 33 33 33 34 35 36 37 39 41 45 48 50 52 53 54 55 55 55 55 54 53 53
20 20 19 18 17 16 15 14 14 16 20 21 21 21 22 23 26 29 30 31 33 34 34 35 35 36 38 39 41 43 45 47 48 49 51 53 54 55 55 55 54 54
21 21 20 19 18 17 17 17 15 15 16 18 20 21 21 21 23 25 26 28 31 33 34 35 36 37 38 39 41 43 45 46 47 49 50 51 52 54 55 55 55 55
23 22 20 20 19 19 18 18 18 18 17 17 19 21 22 23 23 24 25 26 29 32 33 34 35 36 38 39 42 43 45 46 47 48 49 50 52 53 54 54 55 56
23 23 22 21 21 20 20 20 20 20 19 19 19 20 22 23 24 25 25 26 28 30 32 34 35 36 37 39 41 42 45 46 46 47 48 49 51 52 53 52 53 55
24 24 24 24 24 23 23 23 23 22 21 21 20 20 20 22 23 24 25 27 28 29 31 33 34 36 37 39 40 41 43 45 46 47 48 49 49 50 51 51 51 52
26 26 26 26 26 25 24 24 23 23 23 22 22 21 21 21 22 23 24 26 27 28 29 30 32 34 36 38 39 40 41 43 46 48 49 50 50 49 50 50 51 52
26 27 26 26 25 24 24 24 24 24 24 23 23 23 22 22 21 22 23 25 26 27 27 28 30 31 35 37 39 40 41 42 44 46 48 50 51 51 50 50 52 52
26 25 25 25 24 24 24 24 23 23 23 24 24 24 24 24 23 22 22 23 25 26 27 27 28 30 32 35 37 40 41 41 43 44 46 49 50 51 52 52 53 52
26 26 25 26 26 25 25 24 24 24 23 23 23 24 25 25 25 24 23 23 24 25 26 27 28 29 31 33 35 38 39 41 42 42 44 47 49 50 52 53 54 54
28 27 27 27 27 27 27 27 26 25 25 24 23 23 24 24 25 25 25 24 24 24 25 26 28 29 30 31 33 35 37 39 40 41 43 46 48 49 51 52 53 54
29 29 29 28 27 27 28 28 28 28 27 27 26 25 24 24 24 25 26 26 26 25 25 26 28 29 29 29 30 32 35 36 38 40 42 45 47 49 51 51 51 53
31 31 30 30 29 29 28 28 28 28 28 28 28 28 27 26 25 25 25 26 27 27 27 27 28 28 27 27 28 29 32 35 36 39 42 44 46 48 50 51 51 51
33 33 33 32 31 31 31 31 30 29 28 28 28 29 29 29 28 27 27 26 27 28 28 28 28 27 27 27 27 27 29 32 36 38 41 44 46 47 49 50 51 51
35 36 36 36 35 34 34 33 33 33 32 30 29 29 29 29 29 29 29 29 29 30 30 30 29 28 27 27 27 27 27 29 32 37 41 43 45 46 47 49 50 50
35 37 38 39 38 38 37 37 37 37 36 35 33 32 31 30 30 30 30 31 32 32 33 33 32 30 29 28 27 27 27 27 29 33 38 42 44 46 47 48 49 50
36 37 38 39 40 40 40 40 40 40 39 39 38 36 35 33 32 31 31 31 31 32 35 36 35 34 32 30 29 28 27 27 29 31 35 40 43 45 46 47 48 50
40 40 40 41 41 41 42 42 43 43 42 42 41 40 40 38 36 35 34 33 32 32 33 36 36 36 36 34 32 29 27 27 30 31 34 38 42 44 45 46 47 48
44 44 44 43 43 43 43 44 44 45 45 45 44 43 43 42 41 40 38 37 36 35 34 36 36 36 36 37 35 33 30 29 30 32 34 38 41 43 44 45 45 46
46 46 47 47 46 46 46 45 46 47 47 47 47 47 47 46 44 44 44 42 40 38 38 38 38 36 36 37 37 36 34 32 31 32 35 39 41 41 43 44 45 46
49 49 49 49 49 49 49 49 49 49 49 49 49 50 50 50 48 47 47 46 45 43 41 41 40 38 37 37 37 37 36 35 33 33 35 39 40 40 42 44 46 47
52 51 51 52 52 51 51 51 51 51 51 51 51 52 52 53 52 51 51 50 49 47 46 44 43 41 39 37 37 38 37 36 35 35 37 38 38 39 42 45 47 47
Wind_Direction
333 322 315 306 297 290 286 285 287 286 284 284 283 282 283 283 283 281 277 274 271 267 263 259 254 251 249 247 246 246 246 246 246 246 245 245 245 244 244 244 243 243
354 342 332 322 311 302 294 289 288 288 288 288 287 286 286 285 284 282 280 276 273 271 268 264 260 256 253 250 248 247 247 247 246 246 245 245 245 245 244 244 244 243
2 356 346 334 320 307 300 294 289 288 289 289 288 288 287 287 286 284 281 278 275 273 270 267 265 261 258 254 251 249 248 248 247 247 246 245 245 244 244 244 243 243
3 359 351 344 331 313 301 295 293 290 287 286 287 288 287 287 286 284 281 279 277 274 272 269 267 264 261 258 255 253 251 250 249 248 247 246 245 245 244 243 242 242
3 359 353 349 343 330 313 302 301 300 295 291 287 287 288 288 287 285 283 281 279 277 274 272 269 266 263 260 257 255 253 253 252 250 249 248 246 245 244 243 242 242
5 0 356 354 349 341 329 318 312 309 305 301 294 288 287 287 288 287 286 284 282 279 277 274 271 269 266 263 260 257 255 254 253 252 251 250 248 247 245 244 243 243
5 1 358 356 353 349 342 334 325 317 309 301 295 291 286 283 283 284 285 285 284 281 279 276 274 271 268 266 263 261 258 256 255 254 252 251 250 249 247 244 243 243
3 0 359 357 354 351 349 344 338 331 321 308 299 294 289 284 282 281 281 283 283 282 280 278 275 273 270 268 265 263 262 260 258 256 255 253 251 250 249 247 245 243
359 358 359 358 357 354 350 346 343 339 332 323 312 302 293 287 284 281 279 279 280 281 281 279 277 274 272 269 267 265 263 262 261 259 258 256 254 253 252 250 248 246
353 353 353 354 356 356 353 348 344 340 336 332 326 316 305 295 288 282 278 276 274 275 278 279 278 276 274 271 269 267 265 263 262 261 259 259 258 256 254 253 251 249
344 344 344 346 348 349 349 348 345 341 338 335 331 327 321 311 301 293 286 280 276 275 275 277 278 278 277 274 272 270 267 265 263 262 261 260 259 258 257 256 253 251
338 338 338 339 339 339 339 341 342 340 339 336 333 331 329 326 319 310 300 291 285 281 277 275 276 277 277 277 275 272 270 268 266 264 263 262 261 260 259 258 256 254
337 336 336 335 335 333 331 331 332 333 335 335 333 331 329 329 328 324 316 306 296 289 283 279 276 274 275 276 276 274 272 271 269 267 265 264 262 262 261 259 258 257
336 336 334 333 331 330 329 327 325 325 326 328 330 329 328 327 327 327 325 320 310 300 292 286 281 276 274 275 275 276 274 272 270 269 267 265 264 262 261 260 259 258
333 332 332 331 329 327 326 325 324 322 321 321 322 323 324 324 323 322 323 323 321 315 304 294 286 281 278 277 277 276 275 274 272 270 268 266 264 263 262 260 260 259
326 326 327 327 326 325 324 324 323 322 321 320 319 318 318 318 317 317 317 318 319 319 316 307 296 289 284 281 279 278 277 276 275 272 269 266 265 264 263 262 260 260
320 319 320 320 321 322 321 321 321 321 321 320 320 319 317 314 313 313 313 313 314 314 316 315 310 302 293 284 280 278 276 275 275 272 269 267 266 265 264 263 262 261
314 314 314 315 316 316 316 317 318 318 318 318 318 319 318 316 315 313 311 310 309 309 309 311 313 313 307 295 285 279 276 275 273 271 268 267 266 265 265 264 263 263
309 309 309 310 311 311 312 312 313 314 314 315 314 314 314 314 315 314 312 311 309 308 307 307 308 313 315 308 297 285 276 273 272 270 268 266 265 265 265 264 264 263
302 302 303 304 306 307 307 308 308 309 310 311 311 311 310 310 311 311 312 311 310 309 308 305 305 308 311 312 308 297 283 274 271 269 268 267 266 265 265 264 264 263
300 298 297 298 299 300 302 302 303 304 304 305 306 307 307 307 307 307 308 308 309 309 308 305 305 306 306 307 309 307 295 280 272 269 267 266 266 265 264 263 263 262
302 299 296 295 295 295 296 297 298 299 299 300 300 300 301 302 303 303 304 305 306 307 306 304 304 305 306 304 305 307 303 289 277 271 269 267 265 264 263 263 262 262
302 299 297 295 294 293 293 293 294 294 295 296 297 296 296 296 297 298 299 300 302 305 306 305 304 304 305 305 304 304 304 298 286 276 271 269 267 265 264 263 263 261
299 298 296 294 293 292 291 291 291 291 291 292 293 294 293 292 293 293 294 295 296 299 302 304 304 304 304 304 303 303 302 300 294 283 274 271 270 268 266 265 264 261
296 295 294 292 291 290 290 289 289 288 288 288 289 290 290 290 290 290 290 290 291 293 296 299 300 302 303 302 301 300 299 298 296 290 279 273 271 270 268 265 263 262
293 292 291 290 289 288 287 287 286 286 286 286 287 287 287 288 288 288 288 287 287 289 291 293 295 297 300 301 300 298 296 295 294 291 286 280 273 269 267 264 262 262